Torna al catalogo

STARLINK-36036

AttivoComunicazioniVLEO
NORAD 66608·PAYLOAD·🇺🇸 United States

Lanciato Nov 22, 2025 da Cape Canaveral Space Force Station

Loading…

Prossimi Passaggi (prossime 24 ore)

TLE

AggiornatoSource: CelesTrak SupGP

Epoca: Sep 15, 2026, 02:28 UTC

1 66608C 25270W   26258.10326389 -.00011172  00000+0 -40468-3 0  2583
2 66608  43.0009  66.2346 0001560 273.6193 202.4040 15.27581712    16

Traccia STARLINK-36036 in tempo reale con AllMySat

Download on the App Store